EW9842 Weather Reports


Display with metric or nautical units.
time (UTC)temp
F
wind
direction
speed
MPH
gust
MPH
rain 1hr
in
rain 24hr
in
rain mn
in
humidity
%
barometer
mb
20260905031535 54 180 1.0 3.0 0.00 0.02 0.02 86 1018.4
20260905024535 55 315 0.0 0.0 0.00 0.02 0.02 84 1018.5
20260905023033 56 332 1.0 4.0 0.00 0.02 0.02 82 1018.6
20260905021537 57 329 2.0 4.0 0.00 0.02 0.02 80 1018.4
20260905020111 59 359 0.0 0.0 0.00 0.02 0.02 75 1018.0
20260905013032 60 284 0.0 1.0 0.00 0.02 0.02 73 1017.9
20260905011535 60 270 0.0 0.0 0.00 0.02 0.02 74 1017.9
20260905010033 60 267 0.0 0.0 0.00 0.02 0.02 74 1017.9
20260905004652 60 247 0.0 0.0 0.00 0.02 0.02 74 1017.8
20260905003109 60 248 0.0 3.0 0.00 0.02 0.02 74 1017.6
20260905001534 59 281 1.0 4.0 0.00 0.02 0.02 76 1017.6
20260905000031 59 273 1.0 4.0 0.00 0.02 0.02 76 1017.5
20260904234537 59 318 2.0 5.0 0.00 0.02 0.02 77 1017.6
20260904233034 60 299 1.0 3.0 0.00 0.02 0.02 75 1017.5
20260904231608 60 308 1.0 3.0 0.00 0.02 0.02 72 1017.5
20260904230035 61 154 0.0 5.0 0.00 0.02 0.02 68 1017.5
20260904224532 60 127 0.0 4.0 0.00 0.02 0.02 73 1017.4
20260904223035 58 67 1.0 6.0 0.00 0.02 0.02 78 1017.3
20260904221608 58 144 3.0 9.0 0.00 0.02 0.02 77 1017.4
20260904220036 59 180 1.0 5.0 0.00 0.02 0.02 79 1017.4
20260904214533 59 121 0.0 4.0 0.00 0.02 0.02 77 1017.4
20260904213036 60 360 0.0 0.0 0.00 0.02 0.02 76 1017.3
20260904211535 60 349 0.0 3.0 0.00 0.02 0.02 75 1017.2
20260904210034 59 292 0.0 2.0 0.00 0.02 0.02 76 1017.0
20260904204534 59 345 0.0 3.0 0.00 0.02 0.02 77 1016.9
20260904203116 58 64 0.0 3.0 0.00 0.02 0.02 78 1017.0
20260904200033 57 315 0.0 1.0 0.00 0.02 0.02 78 1017.2
20260904194536 57 310 1.0 5.0 0.00 0.02 0.02 79 1017.2
20260904191536 56 344 0.0 3.0 0.00 0.02 0.02 81 1017.3
20260904190035 56 315 1.0 4.0 0.00 0.02 0.02 82 1017.4
20260904183152 55 320 1.0 3.0 0.00 0.02 0.02 82 1017.3
20260904181533 55 314 0.0 4.0 0.00 0.02 0.02 82 1017.2
20260904174641 53 319 1.0 4.0 0.00 0.02 0.02 93 1017.2
20260904173036 51 45 0.0 1.0 0.00 0.02 0.02 94 1017.0
20260904171532 51 48 0.0 3.0 0.00 0.02 0.02 95 1017.0
20260904170035 51 14 1.0 3.0 0.00 0.02 0.02 95 1017.0
20260904164534 51 330 0.0 3.0 0.00 0.02 0.02 96 1016.9
20260904163032 51 299 1.0 4.0 0.00 0.02 0.02 97 1016.9
20260904161531 50 278 1.0 4.0 0.00 0.02 0.02 97 1016.8
20260904160140 50 315 0.0 2.0 0.00 0.02 0.02 98 1016.7
20260904154534 49 315 0.0 2.0 0.00 0.02 0.02 98 1016.6
20260904153030 49 261 0.0 3.0 0.00 0.02 0.02 98 1016.4
20260904151533 49 225 0.0 2.0 0.00 0.02 0.02 98 1016.2
20260904150035 48 152 0.0 2.0 0.00 0.02 0.02 98 1016.1
20260904144544 47 135 0.0 2.0 0.00 0.02 0.02 98 1016.0
20260904143035 47 137 0.0 3.0 0.00 0.02 0.02 98 1015.9
20260904140037 46 157 1.0 3.0 0.00 0.02 0.02 98 1015.6
20260904133036 46 157 1.0 2.0 0.01 0.02 0.02 98 1015.4
20260904131653 46 149 1.0 3.0 0.01 0.02 0.02 98 1015.3
20260904124532 46 135 1.0 2.0 0.00 0.01 0.01 98 1015.1
20260904120033 46 157 1.0 2.0 0.01 0.01 0.01 98 1015.0
20260904114535 47 157 1.0 3.0 0.01 0.01 0.01 98 1014.9
20260904113036 47 135 0.0 2.0 0.01 0.01 0.01 98 1014.7
20260904111532 47 152 0.0 2.0 0.01 0.01 0.00 98 1014.6
20260904110149 47 157 0.0 2.0 0.00 0.00 0.00 98 1014.5
20260904104532 47 157 0.0 0.0 0.00 0.00 0.00 98 1014.3
20260904103032 47 157 0.0 1.0 0.00 0.00 0.00 98 1014.2
20260904101532 47 141 0.0 2.0 0.00 0.00 0.00 98 1014.2
20260904100031 47 150 1.0 3.0 0.00 0.00 0.00 98 1014.0
20260904094537 47 135 0.0 3.0 0.00 0.00 0.00 98 1013.9
20260904093035 46 155 1.0 4.0 0.00 0.00 0.00 98 1013.9
20260904091530 46 164 1.0 4.0 0.00 0.00 0.00 98 1013.9
20260904090153 46 146 2.0 4.0 0.00 0.00 0.00 98 1013.9
20260904083036 46 151 2.0 4.0 0.00 0.00 0.00 97 1013.8
20260904081536 46 160 2.0 4.0 0.00 0.00 0.00 97 1013.8
20260904080109 47 168 1.0 3.0 0.00 0.00 0.00 97 1013.8
20260904074537 47 151 2.0 4.0 0.00 0.00 0.00 97 1013.9
20260904073033 47 157 1.0 4.0 0.00 0.00 0.00 97 1013.8
20260904071531 47 136 2.0 3.0 0.00 0.00 0.00 97 1013.8
20260904070036 47 176 2.0 4.0 0.00 0.00 0.00 97 1013.8
20260904064534 47 150 0.0 3.0 0.00 0.00 0.00 97 1013.7
20260904063032 47 138 1.0 4.0 0.00 0.00 0.00 97 1013.7
20260904061536 47 196 2.0 3.0 0.00 0.00 0.00 96 1013.7
20260904060033 47 156 1.0 4.0 0.00 0.00 0.00 96 1013.7
20260904054532 48 135 0.0 3.0 0.00 0.00 0.00 96 1013.6
20260904053037 48 173 1.0 3.0 0.00 0.00 0.00 96 1013.7
20260904051545 49 176 0.0 3.0 0.00 0.00 0.00 96 1013.7
20260904050108 49 213 2.0 4.0 0.00 0.00 0.00 95 1013.8
20260904044534 49 141 1.0 4.0 0.00 0.00 0.00 95 1013.8
20260904043041 49 136 0.0 1.0 0.00 0.00 0.00 95 1013.9
20260904041536 50 225 0.0 1.0 0.00 0.00 0.00 95 1014.0
20260904040035 50 225 0.0 3.0 0.00 0.00 0.00 95 1013.9
20260904034534 50 215 1.0 4.0 0.00 0.00 0.00 95 1013.7